Home   Weather   Tabatinga   Past weeks
Flag for Brazil

Past Weather in Tabatinga, Amazonas, Brazil — Yesterday and Last 2 Weeks

Now
73 °F

Mostly cloudy.


Feels Like: 68 °F
Forecast: 85 / 72 °F
Wind: No wind

Location: Leticia / Vasquez Cobo

Current Time: Oct 19, 2019 at 11:52:48 pm

Latest Report: Oct 19, 2019 at 11:00 pm


Visibility: N/A

Pressure: 29.90 "Hg

Humidity: 100%

Dew Point: 73 °F

Location of TabatingaLocation

Past Weather in Tabatinga — Graph

°F

Tabatinga Temperature Yesterday

Maximum temperature yesterday: 90 °F (at 2:00 pm)
Minimum temperature yesterday: 73 °F (at 12:00 am)
Average temperature yesterday: 80 °F

High & Low Weather Summary for the Past Weeks

 TemperatureHumidityPressure
High93 °F (Oct 6, 1:00 pm)100% (Oct 4, 10:00 pm)30.02 "Hg (Oct 4, 10:00 pm)
Low70 °F (Oct 9, 4:00 am)56% (Oct 5, 2:00 pm)29.68 "Hg (Oct 6, 4:00 pm)
Average78 °F90%29.86 "Hg
* Reported Oct 4 10:00 pm — Oct 19 10:00 pm, Tabatinga. Weather by CustomWeather, © 2019

Note: Actual official high and low records may vary slightly from our data, if they occured in-between our weather recording intervals... More about our weather records

Advertising

Tabatinga Weather History for the Previous 24 Hours

Scroll right to see more
 ConditionsComfort  
Time TempWeatherWind HumidityBarometerVisibility
10:00 pm
Sat, Oct 19
73 °FMostly cloudy.No wind100%29.92 "HgN/A
9:00 pm73 °FDrizzle. Mostly cloudy.No wind100%29.92 "HgN/A
8:00 pm73 °FPassing clouds.No wind100%29.91 "HgN/A
7:00 pm73 °FLight rain. Passing clouds.2 mph100%29.89 "HgN/A
6:00 pm73 °FPassing clouds.5 mph100%29.85 "HgN/A
5:17 pm73 °FLight rain. Partly sunny.2 mph100%29.83 "HgN/A
5:00 pm73 °FBroken clouds.3 mph100%29.81 "HgN/A
4:00 pm73 °FDrizzle. Broken clouds.7 mph100%29.80 "HgN/A
3:00 pm73 °FDrizzle. Partly sunny.3 mph100%29.83 "HgN/A
2:00 pm73 °FDrizzle. More clouds than sun.2 mph100%29.86 "HgN/A
1:05 pm73 °FLight rain. More clouds than sun.2 mph100%29.89 "HgN/A
1:00 pm72 °FRain. Partly sunny.2 mph100%29.90 "Hg2 mi
12:14 pm75 °FRain. Partly sunny.8 mph100%29.93 "Hg2 mi
12:00 pm82 °FPartly sunny.8 mph89%29.93 "HgN/A
11:00 am82 °FBroken clouds.7 mph84%29.95 "HgN/A
10:00 am79 °FBroken clouds.6 mph94%29.97 "HgN/A
9:00 am79 °FPartly sunny.6 mph89%29.97 "HgN/A
8:00 am77 °FBroken clouds.6 mph94%29.95 "HgN/A
7:00 am75 °FBroken clouds.3 mph100%29.94 "HgN/A
6:00 am72 °FBroken clouds.No wind100%29.91 "HgN/A
5:00 am72 °FPassing clouds.2 mph100%29.86 "HgN/A
4:00 am72 °FPartly cloudy.2 mph100%29.85 "HgN/A
3:00 am72 °FPartly cloudy.2 mph100%29.85 "HgN/A
2:00 am73 °FPassing clouds.2 mph100%29.86 "HgN/A
1:00 am73 °FPassing clouds.5 mph100%29.89 "HgN/A
12:00 am75 °FRain. Partly cloudy.6 mph100%29.89 "Hg3 mi
11:00 pm
Fri, Oct 18
77 °FPassing clouds.No wind100%29.89 "HgN/A
Weather by CustomWeather, © 2019

See weather overview